This is the latest recevied weather packets stored in our database for station/object HK6REC-23. If no packets are shown the sender has not sent any weather packets the latest 10 day(s).
| Time | Temp. | Humidity | Pressure | Rain* | Wind** | Luminosity | Snow |
|---|---|---|---|---|---|---|---|
| 1777879603 | 14.44° C | 91% | 1015 hPa | 0 mm | - | - | - |
| 1777879002 | 13.33° C | 92% | 1015 hPa | 0 mm | - | - | - |
| 1777878401 | 15° C | 92% | 1015 hPa | 0 mm | - | - | - |
| 1777877800 | 12.22° C | 93% | 1015 hPa | 0 mm | - | - | - |
| 1777877199 | 12.22° C | 93% | 1015 hPa | 0 mm | - | - | - |
| 1777876598 | 12.22° C | 93% | 1015 hPa | 0.25 mm | - | - | - |
| 1777875997 | 13.33° C | 93% | 1015 hPa | 0.25 mm | - | - | - |
| 1777875396 | 13.33° C | 93% | 1015 hPa | 1.52 mm | - | - | - |
| 1777874795 | 13.33° C | 93% | 1015 hPa | 0.25 mm | - | - | - |
| 1777874194 | 12.22° C | 93% | 1015 hPa | 0 mm | - | - | - |
| 1777873593 | 13.89° C | 93% | 1015 hPa | 0 mm | - | - | - |
| 1777872992 | 15.56° C | 93% | 1016 hPa | 0 mm | - | - | - |
| 1777872391 | 11.67° C | 90% | 1016 hPa | 0 mm | - | - | - |
| 1777871790 | 11.67° C | 90% | 1016 hPa | 0 mm | - | - | - |
| 1777871189 | 11.67° C | 90% | 1016 hPa | 0 mm | - | - | - |
| 1777870588 | 12.78° C | 90% | 1016 hPa | 0.25 mm | - | - | - |
| 1777869987 | 12.78° C | 90% | 1016 hPa | 0.51 mm | - | - | - |
| 1777869386 | 12.22° C | 90% | 1016 hPa | 0.25 mm | - | - | - |
| 1777868785 | 13.89° C | 90% | 1016 hPa | 0 mm | - | - | - |
| 1777868184 | 12.22° C | 90% | 1016 hPa | 0 mm | - | - | - |
| 1777867583 | 13.89° C | 90% | 1016 hPa | 0 mm | - | - | - |
| 1777866982 | 12.78° C | 93% | 1016 hPa | 0 mm | - | - | - |
| 1777866381 | 14.44° C | 93% | 1016 hPa | 0 mm | - | - | - |
| 1777865780 | 16.11° C | 93% | 1016 hPa | 0 mm | - | - | - |
| 1777865179 | 11.67° C | 89% | 1016 hPa | 0 mm | - | - | - |
* Rain latest hour (hover to see other rain measurements)
** Current wind speed in m/s (hover to see current wind gust speed)